When you browse on this site, cookies collect data to enhance your experience and personalize the content and advertising you see.
Visit our Privacy Policy to learn more. By continuing to use the site, you agree to this use of cookies and data.
  • In Österreich
  • Länderverzeichnis
  • Für 7 Tage
  • Wassertemperatur
  • Satellitenkarten
  • Wetterkarte
  • News
  • Widgets
  • user-avatar
    Anmelden

    Stündliche Wetter Ransko

    Heute, 18 Dezember, Dienstag

    Zeit Temperatur Niederschläge Wind Luftdruck Luftfeuchtigkeit
    00:00 +1°C° 0 mm 1 m/S 764 mmHg 92%
    01:00 +1°C° 0 mm 1 m/S 764 mmHg 93%
    02:00 +1°C° 0 mm 1 m/S 764 mmHg 94%
    03:00 +1°C° 0 mm 1 m/S 764 mmHg 94%
    04:00 +1°C° 0 mm 1 m/S 764 mmHg 95%
    05:00 +2°C° 0 mm 1 m/S 764 mmHg 95%
    06:00 +1°C° 0 mm 2 m/S 765 mmHg 96%
    07:00 +2°C° 0 mm 1 m/S 765 mmHg 96%
    08:00 +2°C° 0 mm 1 m/S 765 mmHg 96%
    09:00 +2°C° 0 mm 1 m/S 765 mmHg 96%
    10:00 +1°C° 0 mm 2 m/S 765 mmHg 96%
    11:00 +3°C° 0 mm 1 m/S 765 mmHg 96%
    12:00 +3°C° 0 mm 1 m/S 765 mmHg 95%
    13:00 +3°C° 0 mm 1 m/S 765 mmHg 95%
    14:00 +3°C° 0 mm 1 m/S 765 mmHg 95%
    15:00 +3°C° 0 mm 1 m/S 765 mmHg 96%
    16:00 +2°C° 0 mm 1 m/S 765 mmHg 96%
    17:00 +1°C° 0 mm 2 m/S 765 mmHg 96%
    18:00 +1°C° 0 mm 2 m/S 765 mmHg 96%
    19:00 +1°C° 0 mm 2 m/S 765 mmHg 96%
    20:00 +1°C° 0 mm 2 m/S 765 mmHg 96%
    21:00 +1°C° 0 mm 2 m/S 764 mmHg 96%
    22:00 +1°C° 0 mm 2 m/S 764 mmHg 95%
    23:00 -1°C° 0 mm 2 m/S 764 mmHg 95%

    Morgen, 19 Dezember, Mittwoch

    Zeit Temperatur Niederschläge Wind Luftdruck Luftfeuchtigkeit
    00:00 -1°C° 0 mm 2 m/S 764 mmHg 94%
    01:00 -1°C° 0 mm 3 m/S 764 mmHg 94%
    02:00 -1°C° 0 mm 3 m/S 763 mmHg 93%
    03:00 -1°C° 0 mm 3 m/S 763 mmHg 92%
    04:00 -1°C° 0 mm 3 m/S 763 mmHg 92%
    05:00 -1°C° 0 mm 3 m/S 762 mmHg 91%
    06:00 -2°C° 0 mm 4 m/S 762 mmHg 90%
    07:00 -2°C° 0 mm 4 m/S 762 mmHg 90%
    08:00 -2°C° 0 mm 4 m/S 761 mmHg 87%
    09:00 -2°C° 0 mm 4 m/S 761 mmHg 84%
    10:00 -1°C° 0 mm 4 m/S 761 mmHg 82%
    11:00 -1°C° 0 mm 4 m/S 761 mmHg 80%
    12:00 0°C° 0 mm 4 m/S 760 mmHg 77%
    13:00 0°C° 0 mm 4 m/S 760 mmHg 75%
    14:00 0°C° 0 mm 4 m/S 760 mmHg 77%
    15:00 -1°C° 0 mm 4 m/S 759 mmHg 79%
    16:00 0°C° 0 mm 3 m/S 759 mmHg 81%
    17:00 0°C° 0 mm 3 m/S 759 mmHg 81%
    18:00 0°C° 0 mm 3 m/S 759 mmHg 81%
    19:00 0°C° 0 mm 3 m/S 759 mmHg 82%
    20:00 0°C° 0.1 mm 3 m/S 759 mmHg 82%
    21:00 0°C° 0.1 mm 3 m/S 759 mmHg 83%
    22:00 0°C° 0.1 mm 3 m/S 758 mmHg 83%
    23:00 0°C° 0.3 mm 3 m/S 758 mmHg 84%

    übermorgen, 20 Dezember, Donnerstag

    Zeit Temperatur Niederschläge Wind Luftdruck Luftfeuchtigkeit
    00:00 +1°C° 0.3 mm 2 m/S 759 mmHg 85%
    01:00 +1°C° 0.3 mm 2 m/S 759 mmHg 86%
    02:00 +1°C° 0.3 mm 2 m/S 758 mmHg 86%
    03:00 +1°C° 0.3 mm 2 m/S 758 mmHg 86%
    04:00 +1°C° 0.3 mm 2 m/S 758 mmHg 87%
    05:00 +1°C° 0.2 mm 2 m/S 758 mmHg 87%
    06:00 -1°C° 0.2 mm 2 m/S 758 mmHg 87%
    07:00 -1°C° 0.2 mm 3 m/S 758 mmHg 87%
    08:00 0°C° 0.3 mm 3 m/S 758 mmHg 88%
    09:00 0°C° 0.3 mm 3 m/S 758 mmHg 88%
    10:00 0°C° 0.3 mm 3 m/S 758 mmHg 88%
    11:00 0°C° 0.3 mm 3 m/S 758 mmHg 89%
    12:00 0°C° 0.3 mm 3 m/S 758 mmHg 90%
    13:00 +1°C° 0.3 mm 3 m/S 758 mmHg 90%
    14:00 +1°C° 0.1 mm 2 m/S 758 mmHg 92%
    15:00 +1°C° 0.1 mm 2 m/S 758 mmHg 93%
    16:00 +1°C° 0.1 mm 2 m/S 758 mmHg 94%
    17:00 +2°C° 0.1 mm 2 m/S 758 mmHg 94%
    18:00 +1°C° 0.1 mm 3 m/S 758 mmHg 94%
    19:00 +1°C° 0.1 mm 3 m/S 758 mmHg 93%
    20:00 +1°C° 0 mm 3 m/S 758 mmHg 93%
    21:00 +1°C° 0 mm 3 m/S 758 mmHg 93%
    22:00 +1°C° 0 mm 3 m/S 758 mmHg 93%
    23:00 +1°C° 0 mm 3 m/S 758 mmHg 92%

    21 Dezember, Freitag

    Zeit Temperatur Niederschläge Wind Luftdruck Luftfeuchtigkeit
    00:00 +1°C° 0 mm 3 m/S 758 mmHg 92%
    01:00 +1°C° 0 mm 3 m/S 758 mmHg 92%
    02:00 +1°C° 0 mm 3 m/S 757 mmHg 92%
    03:00 +1°C° 0 mm 3 m/S 757 mmHg 92%
    04:00 +1°C° 0 mm 3 m/S 757 mmHg 92%
    05:00 +1°C° 0.1 mm 3 m/S 756 mmHg 92%
    06:00 +1°C° 0.1 mm 4 m/S 756 mmHg 91%
    07:00 +1°C° 0.1 mm 4 m/S 756 mmHg 90%
    08:00 +1°C° 0 mm 4 m/S 756 mmHg 90%
    09:00 +1°C° 0 mm 4 m/S 756 mmHg 89%
    10:00 +3°C° 0 mm 4 m/S 755 mmHg 89%
    11:00 +3°C° 0.1 mm 4 m/S 755 mmHg 88%
    12:00 +3°C° 0.1 mm 3 m/S 754 mmHg 88%
    13:00 +4°C° 0.1 mm 3 m/S 753 mmHg 87%
    14:00 +3°C° 0.1 mm 4 m/S 753 mmHg 88%
    15:00 +3°C° 0.1 mm 4 m/S 752 mmHg 89%
    16:00 +3°C° 0.1 mm 4 m/S 751 mmHg 90%
    17:00 +3°C° 0.7 mm 4 m/S 750 mmHg 91%
    18:00 +2°C° 0.7 mm 5 m/S 749 mmHg 91%
    19:00 +2°C° 0.7 mm 5 m/S 748 mmHg 91%
    20:00 +3°C° 0.8 mm 5 m/S 748 mmHg 90%
    21:00 +5°C° 0.8 mm 5 m/S 748 mmHg 89%
    22:00 +7°C° 0.8 mm 6 m/S 747 mmHg 89%
    23:00 +5°C° 0.1 mm 6 m/S 748 mmHg 85%

    22 Dezember, Samstag

    Zeit Temperatur Niederschläge Wind Luftdruck Luftfeuchtigkeit
    00:00 +5°C° 0.1 mm 6 m/S 748 mmHg 82%
    01:00 +5°C° 0.1 mm 7 m/S 748 mmHg 78%
    02:00 +5°C° 0.1 mm 7 m/S 748 mmHg 79%
    03:00 +5°C° 0.1 mm 7 m/S 749 mmHg 79%
    04:00 +5°C° 0.1 mm 7 m/S 749 mmHg 80%
    05:00 +5°C° 0 mm 6 m/S 749 mmHg 81%
    06:00 +5°C° 0 mm 6 m/S 749 mmHg 83%
    07:00 +5°C° 0 mm 5 m/S 750 mmHg 84%
    08:00 +6°C° 0.1 mm 5 m/S 749 mmHg 84%
    09:00 +6°C° 0.1 mm 5 m/S 749 mmHg 84%
    10:00 +6°C° 0.1 mm 5 m/S 749 mmHg 84%
    11:00 +6°C° 0.1 mm 5 m/S 749 mmHg 83%
    12:00 +7°C° 0.1 mm 5 m/S 748 mmHg 82%
    13:00 +7°C° 0.1 mm 6 m/S 747 mmHg 81%
    14:00 +7°C° 0.7 mm 6 m/S 747 mmHg 83%
    15:00 +7°C° 0.7 mm 6 m/S 747 mmHg 84%
    16:00 +7°C° 0.7 mm 6 m/S 747 mmHg 86%
    17:00 +7°C° 0.4 mm 6 m/S 748 mmHg 84%
    18:00 +7°C° 0.4 mm 6 m/S 748 mmHg 82%
    19:00 +6°C° 0.4 mm 7 m/S 749 mmHg 80%
    20:00 +5°C° 0.1 mm 7 m/S 749 mmHg 79%
    21:00 +5°C° 0.1 mm 7 m/S 750 mmHg 78%
    22:00 +5°C° 0.1 mm 7 m/S 750 mmHg 78%
    23:00 +5°C° 0.1 mm 7 m/S 751 mmHg 78%

    23 Dezember, Sonntag

    Zeit Temperatur Niederschläge Wind Luftdruck Luftfeuchtigkeit
    00:00 +5°C° 0.1 mm 7 m/S 751 mmHg 78%
    01:00 +5°C° 0.1 mm 8 m/S 752 mmHg 78%
    02:00 +5°C° 0.1 mm 8 m/S 752 mmHg 78%
    03:00 +5°C° 0.1 mm 8 m/S 752 mmHg 78%
    04:00 +5°C° 0.1 mm 8 m/S 753 mmHg 78%
    05:00 +5°C° 0.1 mm 7 m/S 753 mmHg 79%
    06:00 +4°C° 0.1 mm 7 m/S 754 mmHg 81%
    07:00 +4°C° 0.1 mm 7 m/S 754 mmHg 82%
    08:00 +4°C° 0.2 mm 7 m/S 754 mmHg 82%
    09:00 +4°C° 0.2 mm 7 m/S 755 mmHg 81%
    10:00 +4°C° 0.2 mm 7 m/S 755 mmHg 81%
    11:00 +5°C° 0.1 mm 7 m/S 755 mmHg 79%
    12:00 +5°C° 0.1 mm 7 m/S 755 mmHg 77%
    13:00 +5°C° 0.1 mm 7 m/S 755 mmHg 75%
    14:00 +5°C° 0.1 mm 6 m/S 755 mmHg 76%
    15:00 +5°C° 0.1 mm 6 m/S 755 mmHg 77%
    16:00 +5°C° 0.1 mm 6 m/S 755 mmHg 78%
    17:00 +5°C° 0.1 mm 6 m/S 755 mmHg 78%
    18:00 +4°C° 0.1 mm 6 m/S 756 mmHg 78%
    19:00 +4°C° 0.1 mm 7 m/S 756 mmHg 77%
    20:00 +4°C° 0.1 mm 7 m/S 756 mmHg 78%
    21:00 +4°C° 0.1 mm 7 m/S 757 mmHg 78%
    22:00 +4°C° 0.1 mm 7 m/S 757 mmHg 79%
    23:00 +3°C° 0 mm 6 m/S 758 mmHg 79%
    Mehr zeigen